This demonstration page uses our WeatherBlox Daily Observations layout. Learn more.

Left ArrowRight Arrow

44.8408, -93.29828

Hourly Observations for September 28, 2019

Temp ( °F °C ) Dew Point ( °F °C ) Humidity (%) Winds ( mph kmh ) Pressure ( in mb ) Visibility ( mi km ) Precip ( " mm )
12:53 am 00:53 Partly Cloudy 51 10.6 45 7.2 80 80 N 10 17 29.99 1016 10 16 0.00 0.00
1:53 am 01:53 Partly Cloudy 52 11.1 43 6.1 72 72 N 8 13 30.03 1017 10 16 0.00 0.00
2:53 am 02:53 Partly Cloudy 51 10.6 43 6.1 74 74 NNE 9 15 30.04 1017 10 16 0.00 0.00
3:53 am 03:53 Mostly Cloudy 50 10 42 5.6 74 74 N 8 13 30.06 1018 10 16 0.00 0.00
4:53 am 04:53 Mostly Clear 49 9.4 42 5.6 77 77 NNE 7 11 30.08 1019 10 16 0.00 0.00
5:53 am 05:53 Mostly Clear 47 8.3 42 5.6 83 83 N 9 15 30.11 1020 10 16 0.00 0.00
6:53 am 06:53 Mostly Clear 46 7.8 41 5 83 83 N 6 9 30.14 1021 10 16 0.00 0.00
7:53 am 07:53 Mostly Sunny 47 8.3 42 5.6 83 83 NNE 6 9 30.17 1022 10 16 0.00 0.00
8:53 am 08:53 Mostly Sunny 51 10.6 43 6.1 74 74 NE 8 13 30.19 1022 10 16 0.00 0.00
9:53 am 09:53 Mostly Sunny 54 12.2 41 5 62 62 ENE 10 17 30.22 1023 10 16 0.00 0.00
10:53 am 10:53 Partly Cloudy 58 14.4 39 3.9 50 50 NE 13 20 30.23 1024 10 16 0.00 0.00
11:53 am 11:53 Partly Cloudy 59 15 39 3.9 48 48 NNE 9 15 30.23 1024 10 16 0.00 0.00
12:53 pm 12:53 Partly Cloudy 61 16.1 39 3.9 44 44 E 9 15 30.22 1024 10 16 0.00 0.00
1:53 pm 13:53 Partly Cloudy 62 16.7 39 3.9 43 43 NE 14 22 30.22 1023 10 16 0.00 0.00
2:53 pm 14:53 Partly Cloudy 63 17.2 38 3.3 40 40 ENE 10 17 30.20 1023 10 16 0.00 0.00
3:53 pm 15:53 Partly Cloudy 63 17.2 39 3.9 41 41 ENE 14 22 30.19 1023 10 16 0.00 0.00
4:53 pm 16:53 Mostly Cloudy 62 16.7 39 3.9 43 43 E 13 20 30.20 1023 10 16 0.00 0.00
5:53 pm 17:53 Mostly Cloudy 61 16.1 38 3.3 43 43 ENE 14 22 30.20 1023 10 16 0.00 0.00
6:53 pm 18:53 Mostly Cloudy 60 15.6 39 3.9 46 46 ENE 10 17 30.22 1024 10 16 0.00 0.00
7:53 pm 19:53 Cloudy 58 14.4 41 5 53 53 NE 9 15 30.20 1023 10 16 0.00 0.00
8:53 pm 20:53 Cloudy 58 14.4 40 4.4 51 51 ENE 15 24 30.21 1023 10 16 0.00 0.00
9:53 pm 21:53 Mostly Cloudy 57 13.9 40 4.4 53 53 ENE 13 20 30.22 1023 10 16 0.00 0.00
10:53 pm 22:53 Mostly Cloudy 56 13.3 41 5 57 57 ENE 12 19 30.21 1023 10 16 0.00 0.00
11:53 pm 23:53 Mostly Cloudy 55 12.8 41 5 59 59 E 12 19 30.21 1023 10 16 0.00 0.00

Powered by AerisWeather